West Palm Beach, FL

4:11 AM EDT on May 21, 2018 (GMT -0400)
Palm Beach International

Weather History for KPBI - November, 2013

Change the Weather History Date:

Monday, November 4, 2013

  Actual Average Record
Temperature  
Mean Temperature 79 °F 75 °F  
Max Temperature 83 °F 82 °F 90 °F (1980)
Min Temperature 75 °F 68 °F 46 °F (1966)
Degree Days  
Heating Degree Days 0 0  
Month to date heating degree days 0 0  
Since 1 July heating degree days 0 1  
Cooling Degree Days 14 10  
Month to date cooling degree days 58 40  
Year to date cooling degree days 3906 3661  
Growing Degree Days 28 (Base 50)    
Moisture  
Dew Point 60 °F    
Average Humidity 51    
Maximum Humidity 58    
Minimum Humidity 43    
Precipitation  
Precipitation T in 0.17 in 4.75 in (1998)
Month to date precipitation T 0.69  
Year to date precipitation 57.86 54.89  
Snow  
Snow 0.00 in - - ()
Month to date snowfall 0.0  
Since 1 July snowfall 0.0  
Since 1 September snowfall 0.0  
Snow Depth 0.00 in    
Sea Level Pressure  
Sea Level Pressure 30.05 in    
Wind  
Wind Speed 17 mph (NE)    
Max Wind Speed 26 mph    
Max Gust Speed 35 mph    
Visibility 10 miles    
Events Rain    
T = Trace of Precipitation, MM = Missing Value Source: NWS Daily Summary

Daily Weather History Graph

Daily Weather History Graph

Search for Another Location

Airport or City:

Astronomy

Nov. 04, 2013 Rise Set
Actual Time 6:32 AM EST 5:35 PM EST
Civil Twilight 6:08 AM EST 5:59 PM EST
Nautical Twilight 5:40 AM EST 6:27 PM EST
Astronomical Twilight 5:13 AM EST 6:54 PM EST
Moon 7:35 AM EST (11/4) 6:45 PM EST (11/4)
Length of Visible Light 11h 51m
Length of Day
11h 03m
New Moon, 2% of the Moon is Illuminated
Nov 4
New Moon
Nov 10
First Quarter
Nov 17
Full
Nov 25
Last Quarter
Dec 2
New

Hourly Weather History & Observations

Time (EST) Temp. Heat Index Dew Point Humidity Pressure Visibility Wind Dir Wind Speed Gust Speed Precip Events Conditions
12:53 AM 77.0 °F - 57.0 °F 50% 30.03 in 10.0 mi NE 17.3 mph 24.2 mph N/A   Scattered Clouds
1:53 AM 77.0 °F - 55.9 °F 48% 30.03 in 10.0 mi NE 15.0 mph - N/A   Scattered Clouds
2:53 AM 75.9 °F - 55.9 °F 50% 30.02 in 10.0 mi NE 15.0 mph 23.0 mph N/A   Partly Cloudy
3:53 AM 75.9 °F - 55.9 °F 50% 30.02 in 10.0 mi NE 12.7 mph 20.7 mph N/A   Partly Cloudy
4:53 AM 75.0 °F - 55.0 °F 50% 30.02 in 10.0 mi NNE 9.2 mph - N/A   Partly Cloudy
5:53 AM 75.9 °F - 54.0 °F 46% 30.03 in 10.0 mi NNE 11.5 mph - N/A   Scattered Clouds
6:53 AM 75.9 °F - 52.0 °F 43% 30.05 in 10.0 mi NE 8.1 mph - N/A   Scattered Clouds
7:53 AM 79.0 °F - 57.0 °F 47% 30.06 in 10.0 mi NE 17.3 mph 20.7 mph 0.00 in Rain Light Rain
8:53 AM 78.1 °F - 59.0 °F 52% 30.07 in 10.0 mi ENE 20.7 mph 26.5 mph 0.00 in   Mostly Cloudy
9:53 AM 80.1 °F 80.7 °F 59.0 °F 48% 30.08 in 10.0 mi ENE 16.1 mph 26.5 mph 0.00 in   Mostly Cloudy
10:53 AM 81.0 °F 82.2 °F 63.0 °F 54% 30.08 in 10.0 mi NE 24.2 mph 29.9 mph N/A   Mostly Cloudy
11:53 AM 79.0 °F - 64.0 °F 60% 30.06 in 10.0 mi ENE 20.7 mph 26.5 mph 0.00 in Rain Light Rain
12:53 PM 80.1 °F 81.7 °F 64.0 °F 58% 30.04 in 10.0 mi NE 19.6 mph 34.5 mph 0.00 in   Mostly Cloudy
1:53 PM 81.0 °F 82.2 °F 63.0 °F 54% 30.03 in 10.0 mi ENE 20.7 mph 31.1 mph N/A   Scattered Clouds
2:53 PM 81.0 °F 82.5 °F 64.0 °F 56% 30.03 in 10.0 mi ENE 17.3 mph 24.2 mph N/A   Mostly Cloudy
3:53 PM 80.1 °F 81.5 °F 63.0 °F 56% 30.04 in 10.0 mi NE 20.7 mph 26.5 mph N/A   Overcast
4:53 PM 79.0 °F - 62.1 °F 56% 30.04 in 10.0 mi ENE 20.7 mph 27.6 mph 0.00 in   Mostly Cloudy
5:53 PM 79.0 °F - 62.1 °F 56% 30.05 in 10.0 mi ENE 12.7 mph 24.2 mph N/A   Mostly Cloudy
6:53 PM 79.0 °F - 63.0 °F 58% 30.06 in 10.0 mi NE 17.3 mph 25.3 mph N/A   Scattered Clouds
7:53 PM 78.1 °F - 63.0 °F 60% 30.07 in 10.0 mi NE 20.7 mph 28.8 mph N/A   Mostly Cloudy
8:53 PM 79.0 °F - 60.1 °F 52% 30.08 in 10.0 mi NE 19.6 mph 28.8 mph N/A   Mostly Cloudy
9:53 PM 79.0 °F - 59.0 °F 50% 30.08 in 10.0 mi NE 18.4 mph 25.3 mph N/A   Mostly Cloudy
10:53 PM 78.1 °F - 62.1 °F 58% 30.07 in 10.0 mi ENE 11.5 mph 23.0 mph N/A   Scattered Clouds
11:53 PM 78.1 °F - 62.1 °F 58% 30.07 in 10.0 mi ENE 12.7 mph 23.0 mph N/A   Mostly Cloudy